Location: Wildcat Hills Observatory
(41.6350°N, 103.6812°W)
Time: 18:05:12
(UTC-06:00)

Cosmos 1634 Rocket - Visible Passes

Search period start: 26 June 2017 00:00
Search period end: 06 July 2017 00:00
Orbit: 959 x 993 km, 82.9° (Epoch: 26 June)

Date Brightness Start Highest point End Pass type
(mag) Time Alt. Az. Time Alt. Az. Time Alt. Az.
26 Jun 3.9 00:39:11 10° N 00:45:23 80° E 00:46:46 57° SSE visible
26 Jun 5.8 02:26:44 10° NW 02:29:56 15° W 02:31:26 13° W visible
26 Jun 5.6 23:20:24 10° NNE 23:25:05 22° ENE 23:27:26 18° E visible
27 Jun 4.2 01:04:50 10° NNW 01:10:52 58° W 01:12:06 49° SW visible
27 Jun 4.8 23:45:13 10° N 23:50:58 38° ENE 23:52:47 32° ESE visible
28 Jun 5.0 01:30:50 10° NNW 01:36:12 32° W 01:37:27 29° WSW visible
29 Jun 4.0 00:10:29 10° N 00:16:40 69° E 00:18:09 52° SE visible
29 Jun 5.7 01:57:31 10° NW 02:01:21 17° W 02:02:49 16° W visible
29 Jun 5.7 22:51:59 10° NNE 22:56:16 19° ENE 22:58:51 15° E visible
30 Jun 4.1 00:36:03 10° NNW 00:42:12 67° W 00:43:31 53° SSW visible
30 Jun 5.0 23:16:39 10° N 23:22:12 33° ENE 23:24:14 27° ESE visible
01 Jul 4.8 01:01:59 10° NNW 01:07:35 37° W 01:08:55 33° WSW visible
01 Jul 4.2 23:41:49 10° N 23:47:58 60° E 23:49:38 45° SE visible
02 Jul 5.6 01:28:26 10° NW 01:32:46 20° W 01:34:19 19° WSW visible
02 Jul 5.8 22:23:38 10° NNE 22:27:26 16° ENE 22:30:23 12° E visible
03 Jul 4.0 00:07:18 10° N 00:13:31 77° W 00:15:03 53° SSW visible
03 Jul 6.2 01:57:09 10° WNW 01:57:48 10° WNW 01:58:27 10° W visible
03 Jul 5.1 22:48:05 10° NNE 22:53:25 29° ENE 22:55:48 23° ESE visible
04 Jul 4.7 00:33:08 10° NNW 00:38:56 43° W 00:40:29 36° SW visible
04 Jul 4.3 23:13:09 10° N 23:19:13 52° ENE 23:21:14 38° SE visible
05 Jul 5.5 00:59:25 10° NW 01:04:10 24° W 01:05:55 21° WSW visible
05 Jul 5.9 21:55:26 10° NE 21:58:35 14° ENE 22:01:44 10° E visible
05 Jul 3.9 23:38:35 10° N 23:44:50 88° W 23:46:41 49° S visible
